Change the Weather History Date:

Wednesday, October 29, 2014

  Actual Average Record
Temperature  
Mean Temperature 57 °F -  
Max Temperature 71 °F 61 °F 80 °F (1984)
Min Temperature 42 °F 36 °F 24 °F (1933)
Degree Days  
Heating Degree Days 8    
Growing Degree Days 7 (Base 50)    
Moisture  
Dew Point 45 °F    
Average Humidity 85    
Maximum Humidity 93    
Minimum Humidity 39    
Precipitation  
Precipitation 0.10 in - - ()
Sea Level Pressure  
Sea Level Pressure 29.91 in    
Wind  
Wind Speed 1 mph (WNW)    
Max Wind Speed 12 mph    
Max Gust Speed 24 mph    
Visibility 5 miles    
Events Fog , Rain    
Averages and records for this station are not official NWS values.
T = Trace of Precipitation, MM = Missing Value Source: NWS Daily Summary

Daily Weather History Graph

Daily Weather History Graph

Search for Another Location

Airport or City:

Trip Planner

Search our weather history database for the weather conditions in past years. The results will help you decide how hot, cold, wet, or windy it might be!

Date:

Astronomy

Oct. 29, 2014 Rise Set
Actual Time 7:25 AM EDT 5:58 PM EDT
Civil Twilight 6:57 AM EDT 6:27 PM EDT
Nautical Twilight 6:24 AM EDT 6:59 PM EDT
Astronomical Twilight 5:53 AM EDT 7:30 PM EDT
Moon 12:42 PM EDT (10/29) 11:05 PM EDT (10/29)
Length of Visible Light 11h 29m
Length of Day
10h 33m
Waxing Crescent, 34% of the Moon is Illuminated
Oct 29
Waxing Crescent
Oct 30
First Quarter
Nov 6
Full
Nov 14
Last Quarter
Nov 22
New

Hourly Weather History & Observations

Time (EDT) Temp. Dew Point Humidity Pressure Visibility Wind Dir Wind Speed Gust Speed Precip Events Conditions
12:53 AM 50.0 °F 46.9 °F 89% 29.89 in 10.0 mi Calm Calm - N/A   Clear
1:53 AM 48.9 °F 46.9 °F 93% 29.88 in 5.0 mi Calm Calm - N/A   Clear
2:53 AM 48.9 °F 46.0 °F 90% 29.88 in 10.0 mi Calm Calm - N/A   Clear
3:53 AM 46.9 °F 45.0 °F 93% 29.87 in 8.0 mi Calm Calm - N/A   Clear
4:53 AM 46.9 °F 45.0 °F 93% 29.88 in 8.0 mi Calm Calm - N/A   Clear
5:53 AM 46.9 °F 44.1 °F 90% 29.88 in 10.0 mi Calm Calm - N/A   Clear
6:53 AM 46.0 °F 44.1 °F 93% 29.88 in 8.0 mi Calm Calm - N/A   Clear
7:53 AM 46.9 °F 44.1 °F 90% 29.89 in 9.0 mi Calm Calm - N/A   Clear
8:21 AM 48.9 °F 45.0 °F 86% 29.89 in 9.0 mi Calm Calm - N/A   Scattered Clouds
8:29 AM 48.9 °F 46.0 °F 90% 29.89 in 7.0 mi North - - N/A   Mostly Cloudy
8:53 AM 51.1 °F 48.9 °F 92% 29.89 in 4.0 mi North - - N/A   Mostly Cloudy
9:05 AM 53.1 °F 50.0 °F 89% 29.88 in 5.0 mi Calm Calm - N/A   Scattered Clouds
9:53 AM 57.9 °F 53.1 °F 84% 29.88 in 7.0 mi Calm Calm - N/A   Clear
10:53 AM 61.0 °F 55.9 °F 83% 29.88 in 6.0 mi Calm Calm - N/A   Haze
11:53 AM 69.1 °F 54.0 °F 58% 29.87 in 10.0 mi WNW 6.9 mph 19.6 mph N/A   Mostly Cloudy
12:53 PM 71.1 °F 46.0 °F 41% 29.87 in 10.0 mi Variable 4.6 mph - N/A   Mostly Cloudy
1:53 PM 66.9 °F 41.0 °F 39% 29.86 in 10.0 mi WNW 11.5 mph 18.4 mph N/A   Overcast
2:53 PM 63.0 °F 39.0 °F 41% 29.88 in 10.0 mi WNW 11.5 mph 24.2 mph N/A   Overcast
3:53 PM 60.1 °F 37.0 °F 42% 29.89 in 10.0 mi NW 11.5 mph 20.7 mph N/A   Overcast
4:25 PM 52.0 °F 45.0 °F 77% 29.91 in 2.0 mi WSW 3.5 mph - 0.05 in Rain Rain
4:36 PM 52.0 °F 46.9 °F 83% 29.89 in 4.0 mi Calm Calm - 0.06 in Rain Light Rain
4:53 PM 51.1 °F 48.0 °F 89% 29.91 in 4.0 mi Calm Calm - 0.08 in Rain Light Rain
5:53 PM 51.1 °F 48.0 °F 89% 29.91 in 10.0 mi Calm Calm - 0.02 in   Mostly Cloudy
6:53 PM 51.1 °F 48.0 °F 89% 29.92 in 10.0 mi Calm Calm - N/A   Mostly Cloudy
7:37 PM 48.9 °F 46.9 °F 93% 29.93 in 1.8 mi Calm Calm - N/A   Scattered Clouds
7:50 PM 48.2 °F 46.4 °F 93% 29.93 in 0.8 mi Calm Calm - N/A   Scattered Clouds
7:53 PM 48.0 °F 46.0 °F 93% 29.94 in 0.5 mi Calm Calm - N/A Fog Fog
8:07 PM 48.0 °F 46.0 °F 93% 29.93 in 0.5 mi Calm Calm - N/A Fog Fog
8:23 PM 48.0 °F 46.0 °F 93% 29.93 in 1.0 mi Calm Calm - N/A   Mostly Cloudy
8:35 PM 46.9 °F 45.0 °F 93% 29.94 in 0.5 mi Calm Calm - N/A Fog Fog
8:44 PM 46.9 °F 45.0 °F 93% 29.94 in 1.0 mi Calm Calm - N/A   Mostly Cloudy
8:53 PM 48.0 °F 45.0 °F 89% 29.94 in 0.5 mi Calm Calm - N/A Fog Fog
9:10 PM 46.9 °F 44.1 °F 90% 29.94 in 1.0 mi Calm Calm - N/A   Mist
9:16 PM 46.9 °F 44.1 °F 90% 29.94 in 2.0 mi Calm Calm - N/A   Partly Cloudy
9:23 PM 46.9 °F 45.0 °F 93% 29.95 in 0.8 mi Calm Calm - N/A   Mist
9:33 PM 46.9 °F 44.1 °F 90% 29.95 in 0.2 mi Calm Calm - N/A Fog Fog
9:42 PM 46.0 °F 44.1 °F 93% 29.95 in 0.5 mi Calm Calm - N/A Fog Fog
9:53 PM 46.0 °F 44.1 °F 93% 29.95 in 0.5 mi Calm Calm - N/A Fog Fog
10:11 PM 44.1 °F 42.1 °F 93% 29.96 in 0.5 mi Calm Calm - N/A Fog Fog
10:22 PM 44.1 °F 42.1 °F 93% 29.95 in 0.5 mi Calm Calm - N/A Fog Fog
10:40 PM 45.0 °F 43.0 °F 93% 29.95 in 0.2 mi Calm Calm - N/A Fog Fog
10:53 PM 43.0 °F 41.0 °F 93% 29.95 in 0.2 mi Calm Calm - N/A Fog Fog
11:08 PM 43.0 °F 41.0 °F 93% 29.95 in 0.5 mi Calm Calm - N/A Fog Fog
11:53 PM 42.1 °F 39.9 °F 92% 29.95 in 1.5 mi Calm Calm - N/A   Overcast